Погода в Селивановке

Россия / Ставропольский край     44°30′01″N   44°01′19″E
темп.,
°C
ветер,
м/с
пор.,
м/с
влажн.,
%
обл.,
%
осадки,
мм/ч
давл.,
гПа
погр.,
м
1 декабря, ср
ср100:00+11юв388357 0.4 996255
03:00+9ссз101978100 0.8 997793
06:00+7ю4594100 5.8 998228
09:00+11з9175595 6.3 10011091
12:00+9зсз142253100 0.0 1002923
15:00+7сз101851100 0.0 10051124
18:00+5сз375552 0.0 1008251
21:00+3ю35641 0.0 101187
2 декабря, чт
чт200:00+3ююз4879100 0.0 1011188
03:00+2ююз3984100 0.0 1012219
06:00+3зюз3781100 0.0 1014168
09:00+4зюз4784100 1.1 1018417
12:00+6з586553 0.0 1019891
15:00+8з5856100 0.0 10201052
18:00+5юз347031 0.0 102266
21:00+3ююз36795 0.0 1023112
3 декабря, пт
пт300:00+3ююв35780 0.0 102277
03:00+2юв37780 0.0 1022121
06:00+2юв38795 0.0 1022160
09:00+4юв3107410 0.0 1022294
12:00+8вюв5764100 0.0 1020487
15:00+9вюв3662100 0.0 1019467
18:00+6вюв227648 0.0 102014
21:00+5вюв22865 0.0 101914
4 декабря, сб
сб400:00+4ююз11885 0.0 101910
03:00+3з118670 0.0 101910
06:00+2юз117885 0.0 101910
09:00+5зюз22595 0.0 101954
12:00+10ссз11406 0.0 1018205
15:00+11всв114311 0.0 101637
18:00+7юв225636 0.0 101614
21:00+6вюв2259100 0.0 101510
5 декабря, вс
вс500:00+6юв225890 0.0 101314
03:00+5ююв2260100 0.0 101315
06:00+4ю1157100 0.0 101310
09:00+6ююв1150100 0.0 101311
12:00+8ссв1147100 0.0 101347
15:00+8ссв1147100 0.0 101420
18:00+7ссз0050100 0.0 101510
21:00+6с1251100 0.0 101710